{"data":{"norad_id":64465,"intl_designator":"2025-130AD","name":"STARLINK-34449","alt_names":[],"object_type":"PAYLOAD","status":"ACTIVE","operator":null,"country":"US","launch_date":"2025-06-18","launch_site_code":"AFETR","launch_vehicle":null,"mission":null,"orbit_class":"UNKNOWN","rcs_meters":null,"size_class":null,"mass_kg":null,"dimensions":null,"purposes":["comms"],"wikipedia_slug":null,"has_3d_model":false,"image_url":null,"decayed_at":null,"tle_current":{"epoch":"2026-05-25T03:30:07.814592Z","epoch_age_seconds":76586,"freshness":"FRESH","line1":"1 64465U 25130AD  26145.14592378  .00019923  00000+0  59931-3 0  9996","line2":"2 64465  53.1575  93.0567 0001078  80.9616 279.1509 15.34395065 52415","mean_motion":15.34395065,"eccentricity":0.0001078,"inclination_deg":53.1575,"raan_deg":93.0567,"arg_perigee_deg":80.9616,"mean_anomaly_deg":279.1509,"bstar":0.00059931,"rev_number":5241,"period_min":93.848059919301,"perigee_km":461.98046394733,"apogee_km":463.45535226552,"semimajor_km":6840.8549081064,"source":"CELESTRAK","updated_at":"2026-05-25T13:38:20.454974Z"}}}